Temp
25 25 24 23 21 21 23 19 17 21 26 28 28 27 26 26 24 20 22 24 23 23 23 23 23 23 23 22 21 21 20 20 20 20 20 20 20 19 19 19 19 19 19 19 19 19 19 19 19
25 25 23 24 22 21 19 21 19 22 28 29 28 27 26 25 24 23 22 23 23 23 23 23 23 22 22 22 21 21 20 20 20 20 20 19 19 19 19 19 19 19 19 18 18 19 19 19 20
26 25 25 21 22 21 20 22 25 26 27 28 27 27 26 24 24 24 23 23 23 23 22 22 22 22 22 22 21 21 20 20 20 20 20 19 19 19 19 19 19 18 18 18 19 19 20 20 20
25 24 26 22 23 23 23 22 25 25 27 28 27 26 26 25 24 24 23 23 23 23 22 22 22 22 22 21 21 21 20 20 20 20 20 19 19 19 19 19 18 18 19 20 20 20 19 19 19
25 26 22 23 26 25 24 22 24 25 26 28 27 25 25 25 25 24 23 23 23 23 22 22 22 22 22 21 21 21 20 20 20 20 20 19 19 19 19 18 19 20 20 20 20 19 19 19 19
25 28 21 22 27 24 22 24 20 23 24 28 26 25 24 24 24 24 24 22 23 22 23 23 22 22 22 21 21 21 20 20 20 20 20 19 19 19 19 20 20 20 20 19 19 19 19 19 19
25 22 22 24 26 26 22 23 21 20 19 28 27 25 24 24 24 24 24 23 23 23 23 23 23 22 22 22 21 21 20 20 20 20 20 20 20 20 20 20 19 19 19 19 19 19 19 19 18
27 24 24 25 26 24 24 25 25 23 27 28 28 25 24 24 24 25 24 24 24 24 23 23 22 22 22 22 21 21 20 20 20 20 20 20 20 20 19 19 19 19 18 18 18 18 18 18 18
28 22 23 25 28 25 26 24 24 25 23 24 29 27 25 25 25 25 25 23 24 24 23 23 22 22 22 21 21 21 21 21 21 21 19 19 19 19 19 19 19 18 18 18 18 17 17 18 18
27 22 24 28 28 26 27 25 22 22 21 20 26 26 26 25 25 25 25 24 24 23 24 23 23 22 22 22 22 22 21 21 21 20 19 19 19 19 19 19 18 18 18 18 18 17 18 18 17
28 25 27 29 31 30 28 25 23 23 20 23 24 26 26 26 26 26 25 25 25 24 24 23 23 23 22 22 22 22 21 20 20 20 20 19 18 18 18 18 18 18 17 18 18 18 17 17 17
25 29 30 31 32 31 31 28 25 24 24 26 26 26 27 27 26 26 26 26 25 25 24 23 23 22 22 21 22 22 21 20 20 20 19 20 19 19 19 19 19 18 18 18 18 17 17 17 17
26 28 31 32 32 32 33 27 23 23 24 27 28 26 27 27 28 27 27 26 26 25 25 24 23 23 22 21 21 21 20 20 20 20 20 19 19 20 19 18 18 18 18 17 17 16 16 16 16
29 30 31 32 32 32 31 22 25 22 23 26 28 26 26 26 28 28 28 27 26 26 25 24 23 23 22 21 21 21 20 20 20 19 19 19 19 19 18 17 17 17 17 16 16 16 16 16 15
30 26 27 30 32 30 32 29 26 26 23 22 28 25 24 25 27 28 28 27 26 26 25 24 24 24 23 22 21 21 20 20 19 19 18 18 18 18 17 17 16 16 15 15 15 16 15 14 14
26 26 25 27 29 31 31 25 29 26 26 27 28 27 25 25 28 27 26 24 24 26 25 24 24 23 23 22 22 21 20 19 18 18 17 17 17 17 17 16 15 15 14 14 14 14 13 12 12
24 23 25 27 30 29 28 26 30 28 26 27 28 29 28 25 23 24 26 24 22 23 24 24 24 23 23 22 21 20 18 18 18 17 17 16 15 16 16 15 14 14 14 13 13 13 12 11 9
23 24 25 26 28 28 28 28 28 32 31 27 28 27 24 23 22 23 24 25 22 22 21 23 23 23 22 21 19 18 18 18 17 16 15 15 16 15 14 14 13 13 13 12 12 10 10 9 7
26 26 27 27 30 28 27 27 27 32 32 32 25 23 21 22 22 25 26 23 23 22 21 20 22 20 20 18 18 18 17 17 16 16 15 14 14 14 13 13 13 13 12 11 9 8 8 8 5
27 26 25 27 29 29 27 28 30 29 30 30 24 24 22 19 21 21 22 23 24 22 20 18 20 19 19 18 17 17 16 15 15 14 14 14 13 13 13 13 12 11 10 10 8 7 6 6 6
26 28 26 26 28 28 30 28 29 29 30 25 25 24 24 23 22 20 20 20 20 17 16 17 20 20 20 20 16 16 15 14 14 13 13 14 13 12 12 11 10 9 8 8 7 6 6 6 7
26 29 28 27 25 23 27 22 25 26 26 24 23 21 20 19 19 18 17 16 16 15 15 16 18 17 16 15 15 14 14 13 13 13 13 12 12 11 10 9 8 8 8 7 6 6 6 6 6
27 28 27 27 25 25 25 22 24 26 26 22 22 20 19 19 19 18 17 16 15 15 15 15 16 16 15 15 15 15 13 13 13 12 11 11 10 9 8 8 8 8 7 6 6 6 6 6 6
29 27 25 25 23 20 23 24 25 24 24 22 22 21 20 18 18 17 16 15 15 14 14 15 16 17 16 15 14 13 13 12 12 12 12 11 10 9 8 8 8 7 6 6 6 6 6 6 6
27 25 20 20 20 20 24 24 26 26 24 23 22 20 19 19 18 17 16 15 15 16 16 16 16 15 14 14 14 14 14 13 13 13 12 11 10 9 8 8 7 6 6 5 5 6 5 6 5
24 22 18 20 20 23 25 23 23 24 24 23 22 21 20 18 17 16 15 14 13 13 13 13 13 14 14 14 14 13 13 13 12 12 11 10 9 8 8 7 7 6 5 5 5 6 6 6 5
25 23 23 22 23 21 24 26 25 24 23 23 22 21 20 19 18 17 16 15 14 13 13 13 14 13 13 13 13 13 13 12 11 10 9 9 8 8 7 6 5 5 6 6 5 5 5 5 5
25 25 23 19 20 21 23 24 22 23 22 22 21 22 21 20 19 17 16 15 14 13 12 13 13 13 12 12 12 12 12 11 10 9 8 8 8 7 6 5 5 5 6 6 5 5 5 5 5
24 23 23 20 20 19 20 21 23 23 22 21 22 23 21 20 18 17 16 14 14 13 12 12 12 12 12 12 12 11 10 9 9 8 7 7 6 6 6 5 5 5 5 5 5 5 4 4 4
24 23 22 18 22 20 19 20 25 23 24 23 23 21 21 20 18 17 15 14 14 12 12 12 11 11 11 11 11 10 10 9 8 6 6 6 6 5 5 4 4 4 4 4 4 4 4 4 3
Height
1543 1543 1541 1542 1553 1550 1564 1575 1575 1549 1535 1523 1522 1526 1529 1527 1532 1550 1543 1546 1550 1552 1555 1558 1560 1561 1563 1565 1567 1569 1570 1572 1573 1575 1576 1577 1578 1579 1579 1580 1580 1580 1580 1580 1580 1580 1580 1579 1579
1542 1541 1540 1540 1554 1568 1573 1558 1559 1533 1530 1523 1525 1528 1530 1535 1533 1538 1541 1546 1549 1552 1555 1557 1559 1561 1563 1565 1567 1569 1571 1572 1574 1575 1576 1577 1578 1579 1579 1580 1580 1581 1580 1581 1581 1580 1580 1579 1579
1541 1540 1540 1540 1547 1559 1561 1543 1533 1525 1532 1523 1525 1528 1532 1538 1538 1539 1541 1546 1549 1552 1554 1556 1559 1561 1562 1565 1567 1569 1571 1572 1573 1575 1576 1577 1578 1579 1580 1581 1580 1581 1581 1581 1581 1580 1580 1580 1580
1540 1540 1539 1545 1549 1538 1534 1532 1524 1522 1533 1523 1524 1533 1536 1536 1538 1539 1542 1545 1548 1551 1553 1555 1558 1560 1562 1565 1567 1569 1570 1572 1573 1575 1576 1577 1579 1579 1580 1580 1581 1580 1581 1581 1581 1581 1581 1580 1580
1539 1539 1544 1545 1536 1529 1531 1536 1539 1526 1541 1525 1524 1537 1538 1540 1540 1543 1543 1544 1547 1550 1553 1555 1557 1560 1562 1565 1566 1568 1570 1571 1573 1575 1576 1577 1578 1579 1580 1580 1580 1581 1581 1581 1581 1581 1581 1580 1579
1540 1536 1552 1554 1536 1532 1537 1534 1544 1537 1542 1526 1529 1533 1541 1542 1543 1546 1546 1544 1546 1549 1552 1555 1556 1559 1561 1563 1565 1567 1569 1570 1572 1573 1575 1576 1577 1579 1579 1580 1581 1582 1582 1582 1581 1581 1580 1579 1578
1539 1542 1547 1540 1535 1535 1539 1532 1555 1548 1547 1527 1529 1532 1539 1541 1544 1546 1547 1546 1549 1551 1553 1555 1556 1558 1560 1562 1563 1565 1567 1569 1571 1572 1574 1575 1577 1578 1579 1580 1581 1581 1581 1581 1580 1579 1578 1578 1576
1534 1536 1539 1535 1536 1535 1527 1540 1528 1535 1540 1537 1520 1530 1536 1539 1543 1546 1547 1549 1551 1553 1554 1555 1556 1558 1559 1561 1563 1565 1567 1568 1569 1571 1573 1574 1576 1577 1578 1579 1580 1580 1580 1579 1578 1577 1576 1575 1574
1532 1542 1545 1533 1528 1522 1514 1527 1530 1531 1533 1534 1521 1522 1529 1538 1542 1547 1549 1548 1550 1552 1553 1555 1556 1557 1559 1561 1563 1564 1565 1567 1569 1570 1571 1573 1574 1575 1576 1578 1578 1578 1578 1577 1576 1575 1573 1572 1570
1531 1539 1533 1517 1519 1515 1510 1523 1528 1533 1552 1556 1535 1534 1533 1537 1540 1544 1548 1549 1548 1551 1552 1554 1556 1558 1559 1561 1563 1564 1564 1565 1567 1569 1570 1571 1573 1574 1574 1575 1575 1576 1576 1574 1573 1571 1570 1568 1564
1524 1532 1520 1512 1514 1511 1511 1524 1525 1521 1549 1551 1548 1537 1541 1537 1540 1541 1546 1550 1550 1549 1551 1552 1554 1555 1555 1557 1560 1563 1565 1565 1565 1567 1568 1570 1571 1571 1572 1572 1573 1573 1572 1570 1568 1567 1565 1562 1559
1525 1517 1516 1510 1511 1510 1507 1518 1525 1528 1541 1528 1544 1539 1535 1539 1539 1541 1545 1550 1552 1552 1552 1554 1558 1557 1557 1559 1560 1561 1562 1565 1565 1566 1568 1569 1569 1570 1571 1571 1571 1570 1568 1566 1565 1563 1559 1556 1552
1518 1512 1510 1508 1506 1509 1505 1511 1521 1527 1530 1518 1529 1536 1529 1535 1538 1540 1543 1548 1551 1553 1553 1555 1558 1557 1560 1562 1560 1560 1562 1563 1564 1566 1566 1567 1567 1567 1567 1567 1567 1564 1561 1561 1559 1556 1553 1549 1545
1511 1508 1505 1505 1503 1504 1508 1518 1514 1526 1521 1519 1514 1530 1535 1536 1536 1536 1538 1543 1548 1551 1551 1555 1559 1558 1558 1561 1563 1563 1563 1564 1565 1565 1565 1565 1564 1563 1564 1563 1561 1560 1558 1556 1553 1550 1546 1542 1538
1509 1511 1503 1501 1501 1503 1503 1510 1509 1510 1519 1519 1515 1529 1534 1534 1541 1538 1538 1541 1545 1548 1550 1554 1558 1559 1562 1561 1562 1564 1565 1564 1563 1564 1563 1561 1561 1561 1560 1559 1558 1557 1554 1551 1548 1544 1541 1538 1531
1514 1508 1521 1502 1499 1498 1502 1523 1501 1508 1512 1507 1504 1514 1522 1525 1533 1536 1537 1546 1550 1550 1552 1556 1560 1560 1563 1564 1562 1563 1566 1563 1562 1561 1560 1556 1556 1557 1559 1557 1554 1553 1550 1546 1542 1538 1535 1530 1525
1515 1530 1519 1506 1493 1495 1500 1512 1497 1502 1507 1503 1502 1506 1510 1529 1538 1530 1534 1539 1548 1554 1559 1559 1559 1559 1559 1562 1563 1561 1561 1559 1558 1556 1556 1555 1557 1557 1556 1554 1551 1548 1545 1541 1537 1533 1530 1524 1521
1529 1523 1514 1510 1490 1486 1497 1501 1494 1492 1498 1500 1503 1507 1514 1518 1526 1530 1533 1537 1552 1556 1563 1561 1559 1559 1559 1560 1558 1557 1558 1557 1556 1555 1555 1557 1556 1552 1551 1550 1546 1543 1541 1537 1533 1530 1527 1521 1517
1511 1513 1512 1496 1487 1489 1496 1497 1494 1488 1490 1493 1502 1508 1513 1516 1525 1527 1528 1531 1533 1551 1559 1562 1546 1551 1555 1560 1556 1553 1553 1554 1555 1555 1555 1554 1552 1549 1547 1545 1541 1540 1536 1533 1530 1526 1523 1520 1516
1506 1511 1510 1493 1485 1486 1493 1494 1488 1489 1490 1490 1498 1505 1512 1518 1524 1527 1528 1527 1531 1536 1543 1554 1553 1552 1552 1555 1553 1550 1550 1553 1552 1553 1553 1551 1548 1547 1544 1541 1538 1536 1533 1530 1527 1525 1522 1519 1517
1505 1504 1508 1507 1491 1489 1488 1497 1491 1487 1489 1497 1498 1503 1508 1512 1520 1527 1532 1535 1539 1538 1543 1550 1548 1548 1548 1549 1548 1547 1549 1549 1550 1551 1550 1547 1545 1543 1540 1537 1535 1533 1531 1528 1526 1523 1521 1518 1517
1510 1493 1498 1500 1507 1527 1494 1538 1502 1491 1491 1501 1501 1503 1508 1513 1520 1524 1531 1535 1538 1541 1545 1545 1545 1543 1546 1544 1542 1545 1546 1550 1550 1548 1547 1544 1541 1539 1536 1534 1532 1530 1529 1527 1525 1522 1520 1517 1515
1503 1493 1500 1501 1508 1508 1505 1526 1509 1488 1493 1502 1501 1504 1509 1513 1516 1523 1532 1534 1537 1539 1541 1543 1540 1542 1543 1541 1545 1546 1549 1549 1546 1544 1543 1540 1538 1537 1535 1533 1532 1528 1527 1525 1523 1521 1518 1516 1513
1490 1497 1502 1502 1514 1542 1514 1517 1508 1499 1494 1498 1498 1503 1510 1513 1519 1526 1532 1535 1536 1539 1539 1539 1539 1540 1541 1543 1546 1547 1546 1544 1543 1541 1539 1538 1537 1534 1534 1532 1530 1527 1524 1522 1521 1519 1516 1514 1512
1491 1509 1545 1548 1548 1547 1506 1515 1496 1481 1482 1483 1490 1499 1507 1513 1519 1526 1531 1533 1534 1537 1538 1538 1539 1541 1543 1544 1544 1543 1542 1540 1538 1537 1536 1534 1533 1532 1531 1529 1527 1524 1522 1520 1518 1516 1513 1511 1509
1498 1511 1546 1555 1555 1532 1501 1519 1499 1478 1482 1489 1494 1500 1506 1513 1519 1526 1530 1532 1532 1533 1535 1536 1538 1539 1541 1542 1541 1540 1539 1537 1535 1534 1533 1532 1531 1530 1528 1526 1523 1521 1519 1518 1516 1514 1511 1509 1506
1495 1509 1499 1520 1514 1533 1515 1497 1494 1484 1487 1490 1498 1504 1508 1513 1518 1524 1530 1531 1530 1532 1533 1534 1536 1537 1538 1538 1538 1537 1536 1534 1534 1532 1531 1530 1529 1527 1525 1523 1521 1519 1517 1516 1513 1511 1507 1505 1501
1481 1485 1512 1521 1543 1546 1519 1508 1509 1496 1496 1494 1497 1502 1510 1516 1518 1523 1526 1528 1528 1530 1532 1533 1534 1535 1535 1535 1535 1534 1534 1533 1533 1531 1530 1529 1526 1525 1523 1521 1519 1517 1516 1513 1510 1507 1503 1500 1498
1484 1492 1494 1504 1515 1539 1539 1520 1483 1485 1489 1492 1494 1500 1506 1513 1516 1521 1523 1526 1527 1529 1530 1531 1533 1533 1534 1534 1534 1534 1534 1533 1532 1531 1529 1527 1525 1523 1521 1518 1516 1515 1513 1511 1508 1504 1500 1496 1492
1463 1477 1487 1520 1514 1510 1517 1517 1474 1477 1480 1482 1488 1495 1504 1511 1515 1521 1524 1528 1529 1528 1529 1530 1531 1532 1533 1534 1534 1534 1533 1532 1531 1530 1528 1526 1524 1522 1520 1518 1516 1513 1511 1509 1505 1501 1496 1490 1485
Wind_Speed
13 4 6 4 3 4 4 6 13 15 7 18 23 13 12 6 3 4 20 14 16 17 19 18 17 16 16 15 14 13 12 10 9 8 7 7 7 7 6 7 7 7 7 7 7 8 8 9 9
13 7 8 6 3 3 4 10 14 22 7 22 20 22 14 9 15 27 25 18 11 20 19 18 17 17 16 15 14 13 11 9 8 7 6 5 5 5 5 6 6 7 7 8 8 8 8 9 9
13 5 3 4 3 5 6 7 7 7 11 18 7 15 8 10 27 26 20 18 13 19 19 17 16 15 15 14 13 12 10 8 7 5 5 4 4 4 5 5 5 6 6 6 7 8 9 10 11
12 2 7 2 7 4 7 13 4 8 11 33 27 8 15 19 23 25 24 16 11 20 18 17 16 15 14 13 12 11 9 8 6 5 4 3 3 3 4 4 5 5 6 8 10 11 12 13 14
10 5 2 3 5 2 6 26 15 15 13 26 32 14 14 16 22 28 20 11 16 17 15 15 14 13 13 13 12 11 9 8 7 5 4 3 3 3 3 3 5 7 8 8 9 10 12 14 16
7 3 4 5 2 5 5 23 27 29 28 26 27 19 11 22 26 23 16 24 17 15 11 12 14 14 13 13 12 11 10 8 6 5 4 3 3 3 3 4 5 6 7 8 10 11 13 16 19
10 1 7 10 7 3 9 29 14 15 41 17 29 9 20 26 23 22 18 22 21 13 8 12 14 14 14 13 12 11 9 8 7 5 5 4 4 5 5 5 7 8 10 12 13 12 13 16 16
19 2 11 9 9 4 4 15 34 20 12 13 29 8 20 27 24 22 20 21 13 7 11 14 14 14 14 13 11 10 9 8 7 7 7 7 10 6 6 7 10 9 11 14 12 12 13 18 16
20 3 8 13 4 6 14 6 8 5 23 45 12 34 35 25 22 21 21 20 15 10 7 14 15 14 13 12 10 10 9 9 9 11 12 10 6 4 3 7 9 8 8 12 11 12 15 17 19
9 2 9 17 3 4 6 19 23 21 20 39 20 27 26 27 26 23 19 24 16 20 11 8 13 9 14 10 8 8 9 10 11 14 11 10 6 3 3 5 5 6 7 9 12 15 21 23 27
20 9 13 24 14 16 11 28 17 27 14 7 11 19 23 24 30 21 22 27 18 22 17 15 13 9 9 12 6 6 9 10 10 13 9 7 5 7 7 8 9 9 12 15 17 19 23 27 32
9 23 24 29 20 6 8 20 11 15 11 28 20 19 24 23 28 23 23 27 20 23 19 17 16 13 15 13 9 7 6 5 3 5 11 11 14 13 12 12 13 15 18 19 20 22 27 33 34
9 19 30 28 27 7 4 14 13 16 18 22 10 26 29 26 19 23 23 24 23 23 20 22 23 19 12 12 9 8 7 6 10 11 11 10 12 15 13 14 15 15 17 19 21 26 32 33 34
27 26 23 24 22 21 2 29 26 24 24 13 15 31 24 25 19 23 25 27 27 24 21 24 24 20 17 18 16 16 15 12 13 15 17 15 14 16 14 12 13 17 19 20 24 29 34 35 33
24 9 9 9 13 7 11 6 9 34 28 27 16 33 37 32 23 23 21 26 23 22 22 23 22 18 26 23 21 17 16 13 15 16 18 17 16 16 13 14 16 17 19 23 27 31 32 33 30
9 7 5 8 13 21 6 9 10 34 31 29 27 34 42 39 28 24 21 19 17 20 20 21 20 16 18 23 23 20 18 14 13 18 19 19 19 16 13 16 19 20 23 27 28 30 31 29 30
6 6 9 13 19 8 8 9 10 21 36 30 29 31 42 31 20 25 30 19 12 5 18 19 17 15 13 15 17 18 16 19 20 22 23 17 16 22 22 22 22 24 27 26 28 29 28 29 26
10 6 9 11 11 12 7 7 9 23 18 35 33 23 40 32 31 24 26 16 12 6 11 18 17 13 10 15 15 17 19 20 21 19 18 19 22 25 23 20 22 23 25 25 26 25 26 22 20
12 12 14 11 5 8 9 7 10 14 8 9 33 39 37 34 24 22 27 23 8 19 15 15 25 16 16 21 22 20 22 18 19 22 22 20 18 20 20 21 23 22 22 22 22 24 23 20 21
16 10 10 8 10 4 9 7 3 6 8 9 32 32 32 30 29 26 25 25 20 17 35 18 17 17 22 27 24 24 18 13 14 17 18 17 19 18 21 22 20 19 20 22 22 18 20 20 21
10 3 8 8 12 6 4 1 3 11 14 30 34 30 26 24 26 25 18 20 20 15 11 27 26 18 18 20 17 13 9 8 11 14 16 17 18 19 17 19 19 20 23 22 17 15 16 18 17
5 4 8 12 7 4 3 5 6 8 10 15 26 37 39 36 32 24 19 18 16 15 13 17 18 11 8 5 3 4 4 5 9 12 13 15 12 13 15 16 17 22 24 21 16 13 14 15 17
7 5 6 8 9 4 12 2 8 5 10 11 23 36 39 36 33 28 21 16 16 15 11 12 9 7 6 4 5 6 7 9 10 8 7 9 9 8 7 12 20 23 23 20 16 15 16 16 17
5 6 7 4 3 3 10 3 10 7 9 9 22 33 37 37 31 24 19 19 16 12 12 10 8 7 6 6 8 9 6 7 8 10 10 7 7 8 8 14 20 23 22 17 14 15 16 15 17
5 1 2 3 3 7 7 6 15 7 15 17 22 31 34 29 27 23 21 18 13 13 14 13 12 11 9 7 5 3 3 4 7 8 9 8 9 10 15 18 21 22 17 15 16 18 16 18 20
7 9 6 6 5 6 7 6 9 11 22 25 28 32 29 27 27 29 26 22 16 12 11 13 13 10 8 6 3 1 2 5 7 10 11 11 13 15 16 17 14 14 15 14 14 18 18 17 18
9 6 9 4 6 3 4 4 5 14 14 21 25 29 28 27 28 24 24 22 16 12 11 9 8 7 5 4 4 5 6 8 10 11 11 12 14 14 14 13 13 14 15 16 17 18 19 19 20
11 7 4 1 5 5 7 4 4 10 11 11 14 24 27 29 28 26 21 15 13 13 10 6 5 5 5 4 5 8 11 12 11 11 12 13 13 13 12 11 11 12 13 13 14 16 18 21 21
4 5 3 4 6 6 3 5 8 14 15 14 19 28 34 30 29 24 20 15 13 12 10 5 3 3 2 4 7 9 9 8 10 11 12 14 14 15 15 14 12 12 14 17 20 21 23 26 27
11 11 10 5 5 3 6 5 1 13 18 29 30 34 34 31 27 23 17 13 11 10 7 6 4 2 4 6 8 9 8 8 9 11 14 13 15 14 14 15 14 12 14 17 21 25 30 30 28
Wind_Direction
332 315 347 313 51 83 84 107 348 291 278 82 76 77 67 77 139 173 146 171 153 145 142 140 137 135 137 138 140 139 136 131 126 114 99 88 81 77 71 65 56 49 45 39 34 28 22 17 10
336 7 311 281 104 87 207 164 189 226 197 107 105 95 72 67 108 130 144 158 148 149 142 139 137 136 137 139 142 140 139 135 122 111 100 89 79 72 65 56 48 39 37 32 25 17 10 7 6
332 327 296 165 196 192 157 223 202 272 305 126 98 105 68 106 126 140 153 143 152 149 142 141 140 141 140 142 144 143 136 133 125 116 104 92 86 77 65 54 48 44 31 20 18 23 24 22 16
346 315 260 96 274 261 185 212 220 278 294 113 104 77 121 140 139 149 157 159 169 150 146 146 148 146 145 144 143 143 142 140 137 139 126 115 97 81 71 56 45 30 29 34 31 25 18 12 4
323 259 296 308 247 170 44 35 305 318 275 109 110 107 92 142 144 148 151 158 137 133 146 150 149 150 147 150 150 148 148 152 151 145 131 121 106 87 69 52 39 43 42 35 25 14 6 359 352
289 284 342 276 87 203 71 82 287 328 300 126 117 118 109 134 139 154 158 164 155 150 136 157 154 156 155 155 152 155 159 152 145 142 136 125 115 101 87 65 58 46 32 16 4 355 349 349 350
242 324 251 294 306 155 158 157 177 227 274 132 129 122 140 146 153 155 163 166 161 157 184 172 163 161 160 160 161 163 157 156 154 149 139 134 119 105 82 68 43 19 10 3 356 345 345 348 349
276 160 287 282 296 281 188 156 120 181 323 125 141 148 155 154 152 156 163 159 160 170 153 170 163 162 165 166 166 166 162 158 152 135 118 110 95 104 43 72 26 16 6 6 359 339 338 341 336
283 315 280 275 287 223 208 99 48 21 355 343 170 147 152 149 150 161 152 156 159 186 159 172 168 167 168 166 168 164 160 155 143 129 116 112 119 95 47 22 5 357 347 352 334 324 326 321 314
225 247 256 268 187 223 228 126 136 94 354 295 68 126 143 149 158 156 168 175 177 182 166 160 147 150 162 136 150 164 162 155 147 145 142 134 134 151 348 334 343 322 317 314 298 300 306 311 314
261 241 261 275 265 193 211 153 146 131 184 195 255 144 157 160 168 174 175 182 179 192 184 180 159 159 179 163 167 189 165 171 167 167 180 160 168 170 205 242 262 277 283 283 287 299 314 311 310
272 269 268 268 282 205 343 171 111 142 203 157 262 191 166 183 183 182 178 185 181 187 191 179 166 169 209 184 173 182 173 192 212 249 231 207 200 218 233 249 250 265 272 280 295 309 311 312 311
262 263 271 282 292 245 194 97 132 135 160 133 223 238 175 195 193 190 182 184 177 175 178 174 163 182 181 181 169 168 176 210 228 246 233 238 243 235 245 253 265 272 278 290 300 306 310 315 311
275 283 267 265 285 300 208 134 130 183 162 157 144 202 214 217 212 180 176 177 173 175 184 187 185 197 172 170 170 177 190 215 233 235 243 244 252 245 252 261 264 272 284 294 300 308 313 314 312
288 290 303 294 268 265 279 297 161 177 180 169 105 249 242 242 215 175 165 173 179 178 189 197 199 200 205 183 185 196 199 198 231 248 255 256 262 259 260 269 274 286 295 301 307 310 311 311 312
301 318 310 272 266 254 225 261 284 178 168 174 181 204 224 225 214 168 136 115 147 180 192 198 204 209 207 218 219 214 215 222 230 234 245 251 257 265 294 299 292 298 302 307 311 311 313 314 315
297 234 252 271 253 202 171 236 253 181 186 194 190 207 212 217 155 138 154 129 69 139 189 204 211 219 236 236 225 222 209 221 232 237 247 260 292 308 304 296 300 303 306 313 312 316 320 321 320
253 258 269 255 264 175 194 214 246 262 243 205 210 86 119 122 138 139 150 141 180 343 275 212 214 221 228 243 215 210 212 219 227 244 256 279 301 297 297 299 303 303 312 315 319 322 326 328 330
267 277 278 282 303 144 195 209 247 273 260 175 96 102 108 111 127 174 190 150 143 199 225 241 198 201 212 206 209 209 219 224 239 264 271 283 295 300 301 305 305 313 320 325 330 328 337 343 346
256 280 288 308 337 89 200 224 226 277 298 166 107 104 119 132 132 131 148 183 212 195 211 241 228 218 214 214 227 225 228 243 270 270 283 283 301 305 309 310 312 326 331 333 333 341 344 348 350
265 285 310 294 312 325 140 303 283 293 302 107 105 107 105 120 135 140 144 179 175 155 186 226 234 227 228 236 212 216 232 254 261 264 286 301 304 313 320 320 324 331 337 335 334 336 334 338 344
263 299 289 289 322 278 131 253 251 242 252 105 103 117 119 123 126 121 131 145 167 184 191 222 238 250 237 209 209 206 243 233 254 270 285 301 312 334 339 324 323 327 332 333 337 325 325 323 330
235 289 269 279 313 304 301 76 266 253 220 115 104 125 126 128 133 140 149 152 165 200 215 204 198 196 201 232 224 218 208 232 245 273 294 310 334 0 331 297 311 318 324 330 327 335 331 327 327
266 275 297 313 38 343 255 233 278 269 148 134 120 119 124 129 137 143 153 163 168 161 160 147 147 147 147 168 185 199 224 237 263 279 293 310 292 305 303 299 303 312 317 326 327 322 329 330 331
173 187 320 340 333 250 265 269 256 284 150 141 131 123 130 138 142 147 151 157 151 142 148 145 143 144 146 148 149 184 244 259 287 311 329 315 303 292 286 294 304 308 318 318 322 318 319 320 321
202 164 164 210 222 260 275 249 270 118 103 110 121 131 135 139 142 148 152 154 144 132 126 131 132 125 117 112 99 55 327 318 317 321 325 320 318 316 309 310 325 337 322 316 314 330 323 325 324
247 236 199 199 275 339 240 114 4 119 123 127 132 141 146 147 148 147 150 153 150 145 126 119 108 102 97 81 40 13 359 345 338 333 326 330 333 332 339 347 348 351 355 344 322 319 329 327 316
179 200 199 339 249 241 271 238 193 143 143 135 138 149 151 149 146 152 158 160 150 145 148 144 119 98 69 36 5 353 340 337 336 330 334 335 341 348 348 349 345 346 343 335 319 318 312 309 308
180 229 218 150 163 196 228 266 188 171 161 162 164 159 152 152 151 159 158 163 155 152 152 144 108 105 67 355 346 336 330 325 330 335 340 345 347 347 346 346 337 326 324 320 322 320 313 309 307
173 190 183 149 274 216 161 264 336 158 176 177 174 160 156 159 156 158 159 163 148 148 136 124 117 322 327 320 329 333 333 338 345 341 336 340 341 348 0 2 8 344 333 336 331 323 319 318 318